ATLAS 5 CENTAUR R/B, 49819

Orbit data source: Space-Track

ATLAS 5 CENTAUR R/B, 49819 is space debris in GEO originally from a launch on Tue, 07 Dec 2021 UTC launched from the Air Force Eastern Test Range (AFETR). Debris objects in space refer to the collection of defunct objects orbiting the Earth. Examples of debris include non-operational satellites, rocket bodies, and fragments generated from explosions, collisions, or faulty payload assembly.

Loading next visibility...
Identifier
49819, 2021-118C
Orbit
GEO
Country
Flag of USUS
Related business
Flag of USUnited Launch Alliance/Lockheed Martin (US)
Manufacturer
ULA Decatur
Mission
Spacecraft
Bus & Motor
CENTAUR SEC, RL10C-1
Mass
~2,020 kg wet, 2,020 kg dry
Launch date (UTC)
2021-12-07 (4 years ago)
Launch vehicle
Unknown
Launch site
Air Force Eastern Test Range (AFETR)
Object type
Payload
Rocket body
Debris
Shape & HBR
Cyl + 1 Nozzle, 5.8 m
Radar Cross Section
32.260 m², Large (>1 m²)

Expand to show TLE details & history
Last TLE update: 1 day ago

TLE from 1 day ago
0 ATLAS 5 CENTAUR R/B
1 49819U 21118C   25346.09732648 -.00000174  00000-0  00000-0 0  9996
2 49819   4.0059  80.8468 0290090 201.4500 157.0208  0.94820714 13919
Epoch: 2025-12-12T02:20Z
TLE epoch observation values (Epoch: 2025-12-12T02:20:09.007Z)
Latitude
Longitude
-35.5157°
Altitude
38,566.03 km
Speed
2.938 km/s
True Right ascension
05h 22m 15s
True Declination
0° 00' 00"
Sunlit
Object was in daylight at epoch
Visualization orbit readout
Latitude
Unknown
Longitude
Unknown
Altitude
Unknown
Speed
Unknown
Apparent Right ascension
Unknown
Apparent Declination
Unknown
Sunlit
N/A
Visualization observer readout
Local Sidereal Time
05:23:35
Azimuth
Unknown
Elevation
Unknown
Doppler factor
Unknown
Orbital elements
Apogee altitude
38,658.131 km
Perigee altitude
36,118.878 km
Semi-major axis
43,766.641 km
Eccentricity
0.02901
Inclination
4.0059°
RAAN
80.8468°
Arg. of periapsis
201.45°
True anomaly
158.27648°
Mean anomaly
157.0208°
Eccentric anomaly
157.65276°
Mean motion
0.23704 °/min
Orbital period
1,518.71 mins
BSTAR
0
Loading maneuver chart data...
Computing Atmospheric mass density...
Loading historical data...
Loading historical data...
Loading historical data...
Loading historical data...
Loading historical data...
Loading historical data...
Loading historical data...
Other satellites on launch #118 in the year 2021 (2021-12-07 UTC)

Documentation

Showing up to 5 results
|